Wind_Speed
19 20 21 22 22 21 22 25 26 26 27 28 30 31 28 28 28 28 28 29 29 26 23 22 23 22 23 23 21 19 18 20 21 20 20 21 21 21 23 23 21 20 21 21 20 21 21 18 15 14 15 16 16 16 15 15 15 15 15 14 13 13 12 11 11 10 10 10 8 8 8 7 7 8 8 9 10 10 11 11 12 12 12 11 11
19 20 20 21 21 21 22 24 25 24 25 27 28 29 26 24 24 25 26 26 26 24 21 21 22 22 23 23 21 20 20 22 22 21 20 21 21 22 23 22 21 20 20 21 20 20 19 16 14 15 15 16 16 16 16 16 15 14 14 13 11 12 12 12 11 10 10 9 8 8 8 7 8 8 8 9 10 10 11 12 13 13 12 12 12
17 17 18 19 19 20 20 21 23 24 25 26 27 27 26 23 22 24 25 24 23 22 21 21 23 24 24 23 21 20 21 22 21 21 21 22 23 24 24 22 21 20 20 20 21 19 17 15 15 15 16 16 16 16 17 16 15 15 14 13 12 13 13 12 11 10 9 9 9 9 8 7 8 9 9 9 9 10 12 13 13 13 13 14 14
16 16 16 17 17 18 19 20 22 24 25 25 26 25 25 23 20 23 24 23 23 23 23 24 25 25 24 23 21 20 21 22 22 22 22 23 24 24 24 22 22 21 20 20 19 18 17 17 16 16 17 17 16 16 16 15 15 16 15 13 13 13 13 12 12 10 10 10 9 9 8 7 9 10 9 9 9 11 12 12 13 14 14 15 16
14 14 14 15 16 17 18 19 20 21 22 23 24 23 23 22 19 19 22 21 23 25 25 25 24 24 24 23 21 21 21 22 22 22 23 24 23 21 21 21 20 18 17 17 15 15 18 17 16 16 17 17 16 16 16 16 16 15 15 14 13 14 14 13 12 11 10 9 9 8 7 8 9 9 8 8 9 11 12 12 13 13 14 15 15
11 12 13 14 16 16 17 17 18 19 20 21 21 21 21 20 17 17 20 21 23 24 23 23 23 22 20 19 21 21 19 18 19 20 21 20 19 18 19 19 17 16 17 17 15 17 19 18 16 17 16 17 17 16 16 17 17 16 16 15 14 14 14 13 12 11 10 9 9 8 7 8 10 8 8 8 7 9 10 10 11 12 11 12 12
10 11 13 14 15 15 15 17 17 17 18 19 19 19 19 18 15 14 17 20 22 23 21 20 19 18 17 18 21 19 15 16 17 19 20 19 18 18 17 16 15 16 18 18 18 20 20 18 18 18 17 16 16 15 16 18 18 17 17 15 14 14 13 13 13 12 10 10 9 8 8 8 8 8 8 7 6 7 7 7 8 8 8 8 9
9 10 11 13 13 14 14 16 16 16 17 17 18 18 18 18 16 15 16 18 20 19 17 16 16 18 19 21 20 16 14 16 17 19 19 19 20 19 17 15 16 18 18 18 20 23 21 19 18 17 15 15 14 14 15 15 15 15 15 17 16 15 14 13 12 11 11 10 9 8 8 8 8 8 7 6 5 6 6 7 7 7 8 8 9
9 10 11 12 13 13 14 15 15 15 16 16 17 17 17 17 18 19 20 20 19 16 15 15 15 17 20 21 20 17 16 16 17 17 18 19 20 19 18 18 18 18 18 18 20 22 19 17 16 14 13 13 14 15 14 13 14 14 15 16 13 12 13 12 11 11 11 10 9 9 8 8 8 8 8 7 7 7 7 8 8 8 9 10 11
9 10 11 12 13 14 14 14 14 15 16 16 17 17 17 17 18 20 22 22 20 17 17 16 15 17 19 20 20 19 17 17 16 16 16 16 17 19 20 21 20 19 19 20 20 19 15 15 15 15 15 14 14 16 15 15 15 15 16 14 11 12 14 13 11 11 11 10 10 9 9 9 9 9 9 8 8 8 8 8 9 9 10 10 12
9 9 10 11 13 13 14 15 15 16 17 17 18 18 17 17 18 19 21 21 21 19 18 17 16 17 18 18 18 18 17 17 16 16 16 16 17 19 20 21 21 20 21 21 19 16 14 14 16 16 16 16 16 17 17 16 16 16 17 15 13 14 14 13 12 12 11 10 10 10 10 11 11 10 10 10 10 9 10 11 11 12 13 12 13
9 9 10 11 13 13 15 15 16 16 17 18 19 19 18 18 17 18 19 20 19 17 16 16 15 16 17 18 18 17 16 15 16 17 17 15 16 17 18 19 21 21 20 19 17 15 15 15 16 16 16 16 16 16 17 16 16 16 17 16 15 15 13 13 13 12 12 11 11 12 12 12 13 13 11 11 11 11 12 14 14 14 15 15 16
11 11 10 11 12 14 15 15 16 16 16 18 18 19 20 19 17 17 17 16 15 14 14 15 14 15 17 19 19 19 18 16 17 19 18 16 16 17 17 17 18 17 17 17 16 16 15 15 15 16 16 16 16 16 17 16 16 16 16 16 15 15 14 14 13 12 13 12 12 12 13 12 12 12 11 11 13 13 14 15 15 16 17 18 19
12 12 12 12 12 14 15 15 15 16 16 17 18 19 20 19 17 16 13 11 12 13 14 14 13 13 15 17 18 19 19 18 18 20 20 19 19 20 17 15 15 15 15 15 15 15 16 15 16 17 17 17 16 16 16 16 16 16 15 14 14 14 14 14 14 14 14 14 13 13 14 14 13 12 13 14 14 15 15 15 16 18 18 19 20
12 12 13 13 14 14 15 15 15 15 16 17 17 17 18 18 16 13 11 10 11 12 14 14 12 12 13 16 18 19 19 19 19 20 20 19 19 20 18 15 14 15 15 15 16 18 18 17 16 17 18 17 16 16 16 17 17 16 15 15 15 15 15 15 15 15 16 16 15 15 15 15 14 13 14 14 14 16 17 17 18 19 19 20 21
11 12 14 15 15 16 15 14 14 14 15 15 15 16 16 15 14 11 10 11 12 13 13 11 12 12 12 15 17 19 19 20 20 20 20 18 18 18 17 17 17 16 15 16 17 17 17 16 15 16 17 18 17 17 17 18 17 16 16 16 16 16 16 17 17 17 17 17 17 16 16 15 14 15 15 16 16 18 19 20 21 21 21 22 21
11 13 14 15 16 16 16 14 13 13 13 13 13 14 14 14 13 11 11 10 10 10 7 6 8 10 12 13 15 16 18 19 21 22 21 19 18 19 18 18 20 19 17 16 16 15 15 16 16 16 18 18 18 17 18 19 18 18 18 18 18 18 18 17 18 18 18 18 17 17 16 16 16 16 17 18 19 20 22 23 23 22 21 21 20
10 11 12 14 15 16 16 15 13 12 11 11 11 12 13 14 13 12 10 7 5 5 4 4 7 11 13 14 14 13 14 18 20 20 19 17 16 18 18 17 18 19 18 18 18 17 17 19 18 16 18 20 20 19 20 20 19 20 20 20 19 19 19 19 19 19 19 19 19 18 18 18 18 19 20 21 22 23 24 24 24 22 21 21 22
9 9 11 12 14 15 16 15 13 12 10 10 10 11 11 12 13 12 9 3 2 5 5 6 10 12 12 12 11 11 14 17 18 16 15 14 14 15 17 16 17 19 20 19 18 17 17 19 19 18 19 20 20 21 21 21 20 20 20 20 20 20 21 21 21 21 21 21 21 20 20 21 21 22 23 24 24 24 24 24 24 24 23 23 23
8 9 9 11 12 13 13 13 12 11 11 10 11 11 10 10 10 9 7 3 2 5 5 6 9 10 9 10 10 12 15 16 15 14 14 13 14 17 17 15 15 17 18 18 19 19 18 18 20 21 21 21 22 22 22 22 21 20 19 20 21 22 23 23 23 23 23 22 22 23 24 24 24 25 27 26 25 23 23 24 24 24 24 23 22
8 8 9 10 10 10 10 10 10 10 11 11 11 10 8 8 10 9 7 5 3 3 4 6 8 9 11 12 11 14 18 15 12 14 16 15 16 18 17 14 13 15 16 17 20 22 21 21 21 21 21 22 24 24 24 25 25 23 23 23 24 24 24 24 25 26 25 25 25 26 26 27 27 28 27 25 23 23 23 23 23 22 22 22 22
7 8 8 9 9 8 7 8 8 9 10 11 9 7 7 8 10 10 8 6 5 5 5 6 7 7 9 11 12 15 18 15 11 13 17 18 17 17 16 15 16 18 17 16 19 22 23 23 22 21 22 24 25 26 26 27 28 28 27 27 26 26 26 27 28 29 29 28 28 27 26 27 27 25 23 21 20 21 21 21 22 21 21 21 21
6 6 7 7 7 6 6 6 7 7 8 8 7 5 7 8 9 9 8 5 4 5 6 6 7 8 7 8 11 14 17 16 14 14 16 19 21 19 17 16 18 20 20 17 16 20 23 24 23 22 23 25 26 27 28 29 30 30 30 29 29 30 30 31 31 31 30 28 25 22 22 23 22 20 19 18 18 18 19 19 20 19 19 19 20
5 5 5 5 4 5 5 6 6 5 5 5 4 3 6 7 7 9 9 8 6 5 6 5 6 8 8 8 10 12 15 17 18 17 16 17 20 21 19 18 19 21 22 19 17 18 21 23 25 25 26 27 27 28 30 32 32 32 31 32 32 33 34 33 32 31 28 24 20 18 18 20 19 17 16 17 17 17 17 17 17 16 17 18 19
4 4 3 3 3 4 4 5 6 6 4 4 3 3 4 6 7 8 9 10 9 7 7 6 6 6 6 6 7 8 11 14 17 19 19 18 18 19 19 20 21 22 24 22 20 21 21 21 22 24 26 28 28 29 31 32 32 32 33 34 34 34 33 32 31 29 26 23 21 21 22 22 20 16 15 15 15 16 16 16 16 16 17 18 18
3 3 3 3 3 4 4 5 6 6 5 5 5 5 6 7 8 8 8 9 9 9 8 6 4 5 6 6 6 7 9 10 12 15 17 17 18 19 20 22 23 24 25 25 25 26 27 25 25 25 26 28 29 30 32 33 33 34 34 34 33 31 31 32 32 31 29 26 25 25 25 23 20 16 14 14 14 15 15 15 16 16 17 17 17
2 2 3 3 4 5 6 6 7 6 6 7 8 7 6 4 3 3 4 6 7 8 8 5 0 5 6 6 7 9 10 11 12 14 16 17 19 20 21 23 24 25 26 27 29 31 32 33 34 35 35 35 34 34 36 37 38 39 38 37 35 34 34 34 33 31 29 28 27 25 23 22 19 16 14 13 14 15 16 16 16 16 16 16 17
4 4 5 5 5 5 6 7 8 7 7 8 8 8 7 5 2 0 3 5 5 5 5 3 3 6 7 7 8 9 10 11 12 14 17 20 22 23 24 25 26 27 28 29 30 31 33 35 37 38 39 38 37 37 38 40 41 41 39 38 36 34 33 32 31 30 28 27 25 22 20 18 16 14 13 14 15 15 15 15 15 15 15 16 17
6 6 7 7 7 7 7 7 7 7 7 7 7 6 6 6 4 3 3 4 4 4 3 3 4 7 7 7 9 10 10 11 12 13 15 18 21 24 26 28 29 30 30 30 29 28 29 30 31 31 31 31 31 31 32 32 33 32 31 31 30 30 29 29 28 26 24 22 20 18 16 15 14 13 14 15 15 15 14 15 15 15 16 17 18
7 7 8 8 8 8 8 8 7 7 7 6 6 6 6 6 5 5 4 4 5 5 5 5 5 6 7 8 9 11 12 12 12 13 14 15 16 17 20 23 25 28 29 30 31 31 31 30 30 29 28 27 27 27 27 27 26 26 27 27 27 26 25 24 22 20 18 17 16 16 15 15 15 15 15 15 15 16 16 16 17 17 17 18 18
8 8 8 8 8 8 8 8 8 8 8 8 8 9 9 8 8 7 7 7 7 7 7 7 7 7 8 9 9 10 11 12 12 13 13 14 14 14 15 16 18 20 22 24 26 28 31 32 32 32 31 30 29 28 28 28 27 27 26 24 23 21 19 17 15 14 14 13 14 15 15 16 16 16 16 17 17 18 18 17 17 17 17 17 16
8 8 9 9 8 8 8 8 8 9 9 9 10 10 11 10 10 10 10 10 10 10 10 9 9 9 9 9 10 10 11 12 12 13 13 14 14 15 15 15 15 16 17 18 19 20 22 24 25 26 26 26 25 24 24 23 22 22 20 19 17 15 14 14 13 13 12 13 14 16 16 16 17 17 18 19 18 18 18 18 17 16 15 15 14
7 8 8 8 8 8 8 8 8 9 9 10 10 10 11 10 10 11 11 11 11 11 11 11 11 11 11 11 11 11 12 12 12 12 12 12 13 14 14 15 15 15 15 15 15 16 17 17 18 19 19 19 19 18 16 15 14 13 13 13 12 12 12 13 13 13 14 15 15 16 17 18 18 19 19 19 18 18 17 16 15 14 13 12 12
7 7 7 7 7 7 7 8 8 8 9 9 9 9 10 10 10 11 12 12 12 12 12 13 13 13 13 13 13 13 13 13 13 13 13 12 12 12 13 13 14 14 14 14 14 14 14 14 15 15 15 15 15 14 13 10 9 8 9 9 9 10 11 12 13 14 15 16 17 18 19 20 19 19 18 18 17 16 16 15 13 12 11 11 11
7 7 7 6 7 7 7 8 8 8 8 9 9 9 9 10 10 11 11 11 11 12 12 13 13 14 14 14 14 14 14 14 14 14 14 14 14 13 13 13 13 13 13 13 13 13 13 14 13 13 13 13 13 12 11 10 9 8 9 10 10 11 12 13 14 15 16 18 19 19 19 19 18 18 17 16 16 15 14 13 11 11 11 11 11
8 8 8 7 7 8 8 8 8 8 8 9 9 9 9 10 10 10 11 11 11 12 12 12 12 12 13 13 13 14 14 14 15 15 14 15 15 14 14 14 14 13 13 13 13 13 13 13 13 13 13 13 13 12 11 11 11 10 11 11 12 12 13 14 14 15 16 18 18 17 18 18 18 17 16 15 15 14 12 11 10 10 10 11 11
10 9 8 8 8 9 8 9 8 8 8 9 9 10 10 10 10 11 11 12 12 12 12 12 12 13 13 13 13 13 14 14 14 14 15 15 15 16 16 16 15 15 14 14 13 13 13 13 13 14 14 14 14 13 13 13 13 13 13 13 13 13 13 13 13 14 15 16 16 16 17 17 16 15 15 15 14 12 11 10 10 10 11 11 10
10 10 9 9 9 9 9 9 9 9 9 10 10 10 11 11 11 11 12 12 13 13 13 13 13 14 14 14 14 14 14 14 15 15 15 16 16 16 17 17 17 17 17 16 15 15 15 15 15 15 15 16 16 16 15 15 15 15 15 15 14 13 13 13 12 12 13 14 14 15 16 16 15 15 15 14 13 11 10 10 10 11 11 10 8
11 10 10 9 10 9 9 9 9 10 10 11 11 11 11 11 11 12 12 12 12 12 13 13 13 13 13 14 14 15 14 14 14 15 15 16 16 17 17 17 18 18 18 18 18 17 17 17 17 17 18 18 18 18 17 17 17 17 16 15 15 14 13 13 13 12 13 14 14 14 15 15 15 15 14 13 12 11 10 11 12 12 11 9 7
11 11 10 10 10 10 10 10 11 11 11 11 11 11 11 11 11 11 12 12 11 11 12 12 12 12 12 12 13 14 14 14 14 14 14 15 15 16 17 17 18 18 19 19 19 19 18 18 18 18 18 18 18 18 18 17 17 17 16 16 15 14 13 13 12 13 14 14 14 15 16 16 16 15 14 13 12 11 11 12 13 12 10 8 6
11 11 11 11 11 11 11 11 11 11 11 11 11 11 10 10 11 11 11 10 10 11 11 11 11 11 11 12 12 13 14 14 14 14 15 15 15 16 16 17 17 18 19 19 19 19 19 19 18 18 18 18 18 18 18 17 17 17 16 15 15 14 14 13 13 12 13 14 14 15 16 16 15 15 13 12 12 12 13 14 14 11 9 7 5
11 10 10 11 11 11 10 10 10 10 10 10 10 9 9 9 9 9 10 10 10 10 11 10 10 10 11 11 11 12 12 13 13 14 15 15 16 16 16 17 17 18 18 19 19 19 19 19 18 18 18 18 18 18 17 17 17 16 15 15 14 13 13 13 12 12 13 13 14 14 14 14 14 13 13 13 13 13 14 14 12 10 7 6 5
10 9 9 10 10 10 9 10 10 10 9 9 8 8 9 9 9 9 10 10 10 10 10 10 11 11 11 11 11 11 12 13 14 14 14 15 16 16 17 17 18 18 18 18 18 18 19 19 18 18 18 18 17 17 17 17 16 15 15 14 12 12 12 12 11 12 12 12 13 13 13 13 13 13 12 12 12 13 13 13 11 8 6 6 5
8 8 8 8 9 9 9 9 9 9 8 7 7 8 8 9 9 9 10 10 10 11 11 11 11 11 11 11 11 12 13 13 14 14 15 15 16 16 17 17 18 18 18 18 18 18 17 17 17 17 17 17 16 16 16 15 15 14 13 12 11 10 10 10 10 10 10 11 12 12 13 13 13 12 12 12 13 13 13 11 9 7 6 6 6
7 8 8 8 8 8 8 8 8 8 7 7 7 7 7 8 8 9 9 10 11 11 11 11 11 11 11 11 12 12 13 13 14 15 15 16 16 17 17 17 18 18 18 18 18 18 17 17 16 16 16 16 16 15 15 14 13 12 12 11 10 10 9 9 9 9 9 9 10 11 12 12 12 11 11 12 13 13 11 9 8 7 6 6 6
7 6 7 7 7 7 8 8 8 8 7 7 7 7 7 7 8 8 8 8 9 9 10 10 11 12 12 12 12 12 13 14 15 15 15 16 16 16 17 17 17 17 17 17 17 17 17 16 16 15 14 14 14 14 13 13 12 11 10 10 9 9 9 9 9 9 8 8 9 9 9 9 10 11 11 12 12 11 10 8 8 7 6 6 6
5 6 6 6 7 7 7 7 7 7 6 5 6 7 8 7 7 7 8 8 8 9 8 9 10 12 12 12 13 13 14 14 15 15 16 16 16 16 17 17 17 17 16 16 16 17 16 16 15 15 14 13 13 13 12 12 11 11 10 9 8 8 8 8 9 9 9 9 8 8 9 9 10 11 11 11 10 9 9 8 8 7 7 7 7
5 5 5 6 7 7 8 8 8 7 6 5 6 8 9 7 6 6 8 8 8 7 7 7 9 11 12 12 14 14 14 14 15 15 16 16 16 16 17 17 17 17 17 16 16 16 16 15 15 15 14 13 12 12 12 12 11 11 11 10 9 8 9 9 9 9 9 9 9 9 9 9 10 10 10 10 9 9 9 8 8 8 8 7 7
4 4 4 5 6 6 7 7 7 6 5 5 6 8 8 7 5 5 6 6 5 6 5 6 8 9 10 11 13 14 15 15 16 16 17 17 16 16 16 17 17 18 18 17 16 16 15 15 15 15 14 14 13 12 12 12 12 11 11 11 10 9 10 10 10 10 9 9 9 9 9 9 10 10 10 10 10 9 9 9 9 8 8 7 7
3 3 4 4 5 5 6 6 7 7 6 6 7 8 8 8 6 5 5 5 5 5 6 6 7 7 8 9 11 14 15 15 16 17 17 17 17 16 16 16 17 17 17 17 16 16 16 15 15 15 14 14 13 12 12 11 12 12 12 12 11 11 10 11 11 11 10 9 9 9 9 10 10 10 10 10 10 9 9 9 9 9 8 8 8
3 3 3 4 5 6 6 6 7 7 7 7 8 9 9 8 6 5 6 6 5 5 6 6 6 6 7 8 9 11 14 16 17 16 17 17 18 17 17 16 16 17 17 17 17 16 16 16 15 15 15 14 14 13 12 11 12 12 12 12 12 11 11 11 11 11 11 10 10 10 10 11 11 11 10 10 10 10 10 10 10 9 9 9 9
Wind_Direction
292 293 292 290 290 291 292 294 298 302 305 308 314 315 303 286 271 255 247 248 247 246 246 247 249 250 254 256 250 243 242 242 238 232 233 237 233 227 226 227 227 225 228 230 230 228 223 219 216 211 210 211 214 218 216 213 217 219 220 218 208 208 215 216 218 216 212 212 204 203 219 225 224 230 234 237 242 244 245 246 248 252 255 258 262
297 295 293 290 290 291 293 297 301 305 307 310 316 319 310 293 270 252 246 244 240 239 241 243 245 245 246 247 243 238 235 235 232 224 222 227 228 226 226 228 227 223 224 227 228 227 220 213 213 211 209 210 213 216 214 212 215 218 223 223 211 209 215 213 213 218 215 208 205 209 216 222 229 234 233 234 239 241 244 245 247 250 252 255 259
296 295 292 290 292 294 297 302 305 307 308 308 313 317 315 302 275 255 249 240 229 228 232 235 239 240 240 241 239 235 234 234 230 223 220 221 223 225 226 228 229 225 223 224 224 223 219 211 210 211 210 210 212 215 214 211 209 212 218 219 211 210 213 210 210 212 207 201 209 217 213 215 234 240 234 233 239 242 244 245 247 249 252 255 259
293 294 293 294 297 300 304 306 307 308 307 307 309 312 317 313 286 255 245 237 225 223 225 228 233 237 238 239 237 234 235 237 233 227 222 221 224 228 229 227 222 220 221 221 219 217 216 212 209 212 215 213 213 214 214 211 206 207 213 213 210 211 210 208 206 200 197 203 218 223 211 210 232 241 236 232 238 245 248 249 250 252 255 260 265
295 297 299 301 303 305 307 309 310 309 307 307 307 306 312 316 296 257 244 238 228 224 227 229 232 239 240 237 235 236 236 232 228 226 225 222 224 232 238 231 218 214 219 222 221 219 220 218 210 211 216 215 213 210 209 211 208 205 207 208 208 208 204 204 204 200 197 202 217 224 213 214 226 238 246 245 243 249 253 253 254 257 259 264 271
298 303 306 306 306 309 311 313 315 314 310 307 305 302 302 309 300 267 251 244 234 233 238 236 237 246 250 243 237 239 239 230 225 230 232 230 229 232 235 230 219 216 220 221 220 220 219 216 212 212 214 215 214 208 206 211 210 205 207 206 207 207 203 201 201 200 199 203 216 226 223 226 233 243 255 254 246 248 254 256 258 262 263 265 271
304 310 312 311 313 316 318 320 320 319 316 310 306 300 293 296 295 273 256 249 243 243 247 248 248 253 258 253 245 241 242 239 235 238 241 242 242 239 236 231 224 221 222 220 218 219 217 213 214 215 211 213 216 212 210 212 208 203 205 205 202 201 203 203 196 195 202 209 218 227 227 231 235 236 241 245 242 244 252 255 256 261 262 261 266
314 318 318 318 320 323 325 327 327 325 323 318 310 303 294 287 284 276 269 266 264 260 259 260 258 254 255 255 249 241 238 239 236 236 239 241 246 248 245 241 231 223 222 217 215 216 214 210 216 216 208 211 219 217 217 219 213 209 208 203 194 191 201 205 194 193 206 214 220 226 230 231 230 230 234 235 234 237 244 249 250 254 257 257 260
325 326 325 324 325 329 333 334 333 330 330 327 320 312 301 290 280 275 274 276 278 277 270 265 262 259 258 254 248 241 236 234 231 229 233 238 241 243 242 238 231 223 219 214 213 214 207 203 214 215 208 213 217 213 213 218 218 217 213 207 194 186 196 201 194 198 209 218 226 229 232 235 233 236 239 233 229 233 239 246 250 255 260 262 263
331 328 327 329 330 335 341 341 340 337 334 334 332 324 312 298 284 275 271 271 273 273 269 266 265 265 264 257 248 238 230 228 226 223 225 230 234 237 238 236 230 223 217 213 213 212 201 197 208 211 209 213 211 205 206 211 212 207 203 206 202 193 197 197 195 204 210 215 226 228 229 236 234 235 240 235 233 240 244 247 252 257 262 264 269
328 329 331 334 336 341 345 347 347 343 340 339 339 335 325 311 297 285 277 272 271 270 268 267 263 261 262 258 247 233 221 219 221 220 221 224 227 231 233 231 227 223 217 211 208 204 198 200 206 209 210 211 208 205 206 207 206 199 194 199 203 199 201 197 195 206 211 213 225 227 227 236 237 234 239 240 239 245 251 254 254 258 261 262 265
325 333 336 336 337 341 345 348 348 346 345 343 340 338 334 323 308 297 288 278 271 270 267 263 258 256 257 254 247 239 230 222 221 224 223 220 220 220 219 220 220 216 210 205 200 197 201 205 208 211 212 212 210 207 205 203 202 199 196 201 203 201 205 206 206 212 214 215 229 230 226 235 237 228 228 241 250 253 256 259 258 258 261 260 259
323 331 336 335 336 339 343 346 346 343 343 341 339 338 337 332 320 309 301 286 272 269 269 264 258 255 252 249 245 242 239 232 226 223 219 214 214 215 215 215 215 212 210 207 202 200 202 204 208 213 215 214 211 207 205 204 204 205 206 209 210 209 212 217 217 217 216 221 233 234 229 237 245 240 240 256 266 263 260 262 262 260 261 262 262
319 326 331 333 335 337 341 344 342 340 338 336 336 336 335 333 328 319 312 296 276 270 270 267 262 258 253 248 243 239 239 236 226 218 215 212 210 212 215 217 215 217 218 215 208 204 204 207 211 215 217 216 214 210 209 210 210 213 216 217 219 221 224 228 228 227 231 238 245 248 245 249 256 256 255 263 267 265 265 265 263 266 269 267 267
314 322 328 332 334 334 339 342 339 335 332 331 331 332 331 331 329 324 316 307 294 283 276 267 258 255 251 245 240 236 234 231 222 214 212 209 205 207 215 219 219 220 218 215 213 209 205 207 212 216 218 217 216 215 215 216 216 218 222 223 224 227 229 234 237 238 244 249 253 256 255 255 255 253 253 259 263 265 270 269 267 272 275 272 270
315 322 327 330 331 331 334 338 338 333 329 327 327 327 329 330 330 324 311 302 300 297 287 269 251 244 239 238 237 231 226 224 218 211 204 201 201 206 212 216 218 220 216 214 220 217 209 207 211 216 219 219 220 221 222 224 224 224 225 226 227 229 231 234 239 241 245 250 251 252 252 252 254 256 258 263 265 267 269 270 270 272 273 272 271
317 321 326 328 327 328 330 333 337 335 328 325 324 324 327 329 329 324 313 306 304 302 293 261 242 230 220 224 225 218 216 215 212 206 199 195 199 204 210 215 217 218 216 216 223 225 220 217 215 218 221 221 222 225 227 230 230 228 229 228 228 231 233 235 239 242 243 243 242 244 247 251 256 260 263 266 268 270 270 270 270 268 268 268 266
318 319 323 325 323 324 325 329 335 336 328 322 320 321 324 326 327 325 322 318 299 283 267 228 214 197 193 204 206 201 208 212 208 200 190 188 196 202 209 217 219 219 220 221 222 223 222 221 220 223 227 226 225 228 230 232 231 228 229 231 230 232 234 235 237 237 235 235 237 240 247 255 261 265 268 270 272 274 274 271 269 266 261 259 259
316 317 318 318 319 320 321 325 332 333 325 318 317 318 320 325 330 330 330 326 253 269 275 235 212 198 198 212 209 194 196 201 198 188 180 186 199 205 212 221 221 219 219 220 221 221 223 224 222 223 225 224 225 229 232 234 233 231 232 233 232 232 233 234 233 232 232 235 240 247 255 262 267 270 272 275 276 277 274 268 264 260 256 255 259
311 312 311 312 315 316 316 322 329 328 323 319 318 318 321 333 345 347 348 351 269 277 280 243 231 232 240 247 231 203 196 197 193 185 185 197 205 205 211 222 225 220 222 227 229 226 225 227 227 226 224 221 222 228 234 236 237 236 236 235 233 233 234 234 234 234 237 242 247 254 260 264 268 272 274 276 276 273 267 260 257 257 257 259 263
300 302 306 311 313 312 314 321 326 325 322 319 320 325 332 349 11 20 20 16 352 308 295 273 267 272 272 264 239 208 202 205 201 192 195 203 208 213 221 231 233 229 231 237 237 233 228 226 226 227 226 223 224 229 234 237 237 238 238 237 237 238 238 237 237 239 242 247 252 256 260 265 270 273 274 273 267 261 256 254 254 255 258 262 263
295 296 300 305 307 308 315 323 322 320 320 318 323 346 1 6 22 35 35 24 11 356 339 313 299 298 282 259 233 205 202 208 207 202 203 204 208 221 233 238 235 236 241 242 232 224 223 225 228 233 234 234 234 234 237 239 240 238 238 239 241 243 241 238 239 242 245 249 254 258 264 270 273 272 268 261 254 251 251 253 253 254 255 257 259
301 303 303 302 306 310 316 324 320 314 314 312 318 4 25 19 19 27 33 31 11 353 347 326 306 307 296 257 227 207 202 205 203 200 203 205 209 219 230 233 232 236 245 249 232 219 222 226 231 238 241 240 240 239 238 239 239 238 236 237 239 241 242 241 241 244 247 252 256 260 265 268 266 260 255 252 251 252 253 253 253 253 253 254 255
310 320 319 315 321 324 325 331 330 325 321 313 314 13 36 27 21 22 25 29 23 6 1 346 310 300 298 279 255 233 224 222 218 214 212 211 213 217 225 232 234 234 239 243 238 231 231 229 229 235 240 242 242 240 236 233 232 233 233 234 235 237 240 242 243 245 248 251 253 253 254 253 250 246 247 250 254 256 256 255 256 256 256 258 257
316 331 338 330 326 331 336 343 350 354 351 336 334 7 25 22 24 22 16 16 22 25 18 3 335 313 302 292 279 262 250 246 242 240 240 234 226 223 225 231 235 236 239 242 243 242 239 232 227 230 235 237 237 238 237 235 234 235 235 234 235 236 238 242 245 248 249 248 246 246 246 245 242 242 248 253 257 260 258 257 258 257 257 259 259
330 348 1 1 358 1 5 9 11 13 17 23 24 23 20 15 11 6 357 359 11 17 10 357 332 302 289 283 277 270 268 266 258 253 252 248 239 233 231 233 236 238 241 245 248 249 249 247 247 247 248 247 243 240 241 241 242 242 242 241 243 245 248 251 252 251 250 250 251 252 252 250 247 247 252 256 261 263 261 258 259 259 258 259 261
10 15 22 28 29 29 33 39 42 39 43 53 55 51 47 40 14 351 352 359 5 3 356 354 236 187 194 211 228 235 243 252 256 255 253 251 247 244 242 242 243 244 246 249 252 255 257 259 262 265 266 266 262 257 253 250 249 248 248 250 253 255 256 255 254 254 256 258 258 256 255 255 255 255 256 257 258 260 259 259 259 258 259 263 268
51 49 48 45 39 36 37 41 45 48 50 54 57 55 55 63 84 314 342 352 354 342 327 308 239 204 186 181 195 205 208 217 229 237 242 245 247 249 250 249 249 250 252 253 256 260 260 259 260 263 264 264 263 259 255 251 250 249 250 252 253 255 256 256 256 258 259 259 258 256 256 258 261 263 262 261 260 260 260 261 262 264 269 274 278
67 62 59 56 51 50 51 47 42 41 43 45 48 50 50 51 49 31 8 8 11 3 338 306 280 269 263 257 260 264 260 252 248 249 251 251 251 252 253 254 255 255 256 257 258 257 254 251 249 249 250 250 249 246 245 244 245 247 249 250 252 253 255 255 256 257 257 256 256 257 256 255 256 258 260 261 262 264 266 267 269 272 275 276 277
73 68 65 64 62 62 62 60 56 55 56 58 59 58 54 48 42 38 33 30 28 21 7 354 339 321 308 301 298 299 298 295 292 288 284 281 277 270 266 265 264 264 263 262 260 257 257 258 257 252 250 251 251 250 251 252 252 252 251 250 250 249 250 250 251 251 252 254 255 254 252 252 254 256 260 262 264 265 265 266 268 269 270 272 275
80 77 74 70 70 69 67 66 66 65 65 65 64 62 59 54 48 45 42 36 31 27 19 7 355 344 334 326 322 319 317 317 314 311 307 304 302 300 296 291 285 281 277 274 270 267 266 266 264 259 257 258 258 257 254 252 249 247 244 242 240 239 239 239 239 240 242 245 247 249 250 252 255 257 260 261 262 263 263 263 264 266 268 271 276
91 88 85 80 77 75 72 67 64 62 60 59 58 58 57 54 49 47 46 43 38 32 28 23 16 8 359 351 344 337 332 327 324 321 319 316 313 311 308 305 302 298 293 289 285 280 275 271 266 260 257 254 252 250 248 246 245 244 242 240 237 235 233 231 231 233 237 241 245 248 250 253 256 258 259 259 259 259 259 260 261 263 268 273 279
96 93 91 89 86 81 77 72 66 62 59 55 52 51 50 48 48 47 45 43 38 33 29 27 23 20 16 12 7 2 358 352 346 341 336 331 327 323 318 315 314 312 308 304 299 294 288 283 277 271 265 261 258 256 255 255 257 257 256 254 251 245 241 238 235 236 240 244 248 251 253 254 255 254 254 254 254 253 253 254 256 259 264 271 277
97 92 90 90 88 82 78 75 69 65 62 58 54 52 48 45 45 46 45 43 39 35 33 30 27 25 23 20 17 14 10 6 3 360 356 353 348 342 336 331 327 324 321 317 313 309 304 298 292 286 281 276 273 270 270 272 277 282 283 281 275 267 261 257 253 251 251 251 252 252 251 250 249 248 247 247 247 248 249 250 253 257 262 267 271
97 92 86 85 84 81 78 75 72 70 69 66 63 59 54 51 49 47 46 45 42 39 37 34 30 28 24 20 17 15 13 11 9 6 4 2 359 355 352 347 341 336 332 327 323 319 315 311 307 301 296 290 284 280 277 275 275 278 280 281 280 276 272 268 264 260 257 254 252 251 249 247 243 242 242 242 242 245 248 250 253 258 261 264 267
99 95 91 89 86 82 80 78 75 73 72 70 67 62 56 52 50 48 46 44 42 41 40 38 35 32 28 22 18 15 12 10 7 4 2 360 357 355 353 350 347 345 340 336 332 328 323 320 315 311 306 301 294 288 283 278 275 273 271 271 271 271 270 268 264 259 256 254 252 249 246 243 240 239 240 241 242 243 244 247 253 257 260 263 266
98 96 96 94 89 85 82 79 76 75 72 69 66 61 56 51 47 45 43 41 38 37 36 34 32 30 27 23 20 17 14 10 6 2 359 355 352 350 347 345 343 342 339 336 332 328 323 320 316 313 310 306 301 295 290 285 281 279 276 275 274 273 271 269 266 262 258 254 251 247 243 241 238 236 237 238 241 242 243 246 251 255 258 260 262
98 98 98 94 91 89 86 82 79 75 71 68 64 59 55 52 48 45 43 41 38 36 34 31 29 25 21 19 18 17 14 10 6 3 359 355 351 348 344 340 337 335 332 330 327 324 320 317 313 311 309 307 306 304 300 296 291 287 284 282 279 275 270 267 264 260 257 253 249 245 242 239 236 236 238 239 240 241 242 246 250 253 253 252 252
97 97 95 93 92 89 86 83 78 72 67 66 63 59 56 53 50 47 44 41 38 35 33 31 28 23 20 18 15 12 11 9 6 4 360 356 352 348 344 340 336 333 330 328 325 322 319 315 312 310 308 306 305 305 304 303 300 297 294 290 285 277 270 265 262 259 256 252 247 241 238 235 234 236 239 241 242 241 243 246 248 247 246 243 241
92 90 88 88 87 83 79 75 72 69 65 63 61 59 56 54 52 48 44 40 36 33 31 28 24 21 20 18 13 7 4 3 3 1 358 356 353 349 346 343 339 335 331 328 325 322 320 318 315 312 309 307 306 304 303 302 301 299 298 294 288 280 272 266 263 259 255 251 247 241 237 234 234 237 240 244 245 244 243 242 242 239 234 230 231
86 84 81 79 77 74 71 67 65 65 63 60 58 56 52 51 50 49 44 38 30 27 26 23 19 18 17 14 11 5 1 358 358 357 354 353 351 348 345 343 340 338 334 329 326 322 320 318 316 314 312 310 308 307 305 303 300 298 297 295 290 284 276 269 263 258 252 247 244 242 240 240 242 244 246 245 241 238 238 238 236 230 222 218 223
82 79 76 73 70 67 64 62 61 61 59 57 54 51 49 48 47 44 42 37 30 26 23 17 13 15 14 10 6 3 358 356 356 354 352 350 347 345 343 341 339 337 335 331 328 325 321 319 317 315 314 312 311 310 308 306 302 299 296 293 289 283 276 269 261 253 247 244 244 247 249 250 250 248 244 239 236 236 238 236 230 220 213 213 222
82 79 75 71 68 64 60 56 54 52 51 50 48 44 42 42 39 35 33 31 27 25 22 13 8 11 11 7 3 1 359 359 357 354 352 349 345 342 341 340 338 336 334 332 329 325 322 319 317 315 314 313 312 311 309 306 304 300 296 291 286 278 272 267 259 252 250 249 249 249 249 248 247 243 238 235 235 236 233 228 220 211 208 215 228
82 80 74 68 64 60 56 51 47 45 42 40 41 40 38 35 33 30 26 22 19 19 16 10 8 10 10 7 4 2 1 359 357 353 351 349 346 342 340 338 336 334 333 332 330 327 323 319 316 314 313 313 313 312 310 306 303 299 295 290 284 276 269 263 258 255 255 252 248 243 239 236 236 236 232 228 226 226 223 219 213 208 209 222 241
77 73 67 61 58 55 51 46 42 36 28 23 27 30 29 27 26 23 19 18 16 11 7 5 5 7 8 5 2 1 359 358 356 354 352 350 348 345 341 338 336 333 332 331 331 328 325 321 317 314 313 313 313 313 311 307 303 298 294 290 285 277 268 260 253 248 245 241 239 239 237 234 233 233 230 226 224 223 218 212 210 212 218 233 249
74 66 60 53 46 43 40 37 31 23 15 13 15 12 8 14 21 19 14 12 7 1 360 4 6 5 5 3 360 359 360 359 358 357 356 354 351 347 344 341 338 335 334 333 332 330 328 326 324 321 318 315 313 312 310 307 302 298 295 291 286 279 269 258 249 240 232 229 230 234 238 237 234 230 225 221 221 220 215 212 213 220 230 244 254
69 59 51 41 32 27 24 18 12 5 1 2 2 357 355 0 8 7 4 360 354 350 354 359 360 359 0 1 1 1 1 0 360 359 358 356 353 351 348 345 341 339 337 335 334 333 332 330 328 326 324 320 315 311 308 305 301 297 294 291 286 278 267 256 249 241 232 225 222 224 225 223 222 224 223 220 219 220 221 221 223 227 237 248 253
59 48 36 26 20 15 7 1 358 360 4 2 354 356 2 4 359 357 358 354 348 349 353 353 352 353 354 356 357 359 359 359 359 359 356 354 353 352 350 347 344 342 341 339 336 334 334 333 332 330 328 324 319 312 307 303 298 295 291 287 283 275 265 257 251 245 235 225 219 218 216 213 214 219 224 225 226 228 229 230 232 236 242 248 247
51 39 26 20 14 2 353 354 356 357 360 355 347 351 0 1 348 343 350 351 345 346 349 346 345 346 348 349 351 353 353 353 353 352 351 349 349 350 350 349 346 344 342 341 337 334 332 332 331 331 329 326 321 315 308 302 297 293 288 282 277 272 265 259 253 245 234 223 215 212 213 216 218 223 228 230 232 233 232 232 236 240 243 242 237
42 26 14 11 359 342 338 348 353 346 343 345 343 340 345 348 345 340 345 348 345 341 340 340 340 340 339 339 342 346 349 349 347 345 344 343 343 343 344 346 346 345 343 341 338 333 329 327 326 326 327 326 323 317 311 304 298 293 287 280 274 269 263 257 250 239 228 220 218 220 224 228 231 233 234 235 233 232 230 232 238 243 243 238 230
8 2 356 348 339 332 334 346 347 340 336 338 334 328 331 339 341 335 331 331 332 333 333 333 334 334 332 331 335 342 345 343 339 337 337 336 335 335 336 339 342 344 342 339 337 334 329 325 322 319 318 320 319 316 312 307 302 296 289 280 271 266 260 252 242 233 226 226 229 233 236 238 239 238 237 234 232 231 233 237 242 242 240 235 229
Height
3118 3117 3116 3115 3114 3113 3111 3109 3108 3106 3104 3102 3099 3096 3092 3090 3089 3090 3091 3092 3093 3094 3095 3096 3097 3097 3097 3097 3098 3099 3101 3102 3104 3106 3108 3109 3112 3113 3114 3115 3118 3119 3120 3122 3123 3125 3124 3123 3124 3126 3129 3130 3132 3134 3135 3135 3136 3136 3138 3139 3139 3140 3141 3142 3142 3143 3143 3144 3144 3145 3145 3145 3145 3146 3147 3148 3149 3149 3150 3150 3151 3152 3152 3153 3153
3115 3114 3113 3113 3112 3110 3109 3107 3105 3104 3102 3099 3096 3093 3091 3088 3087 3087 3089 3090 3091 3092 3093 3094 3094 3094 3095 3094 3095 3095 3096 3098 3100 3104 3106 3107 3109 3111 3112 3113 3115 3117 3119 3120 3122 3123 3123 3122 3123 3125 3127 3129 3131 3132 3133 3134 3135 3136 3137 3138 3138 3139 3140 3141 3141 3142 3142 3143 3143 3143 3144 3144 3144 3144 3145 3146 3147 3148 3148 3149 3149 3150 3151 3151 3151
3113 3112 3112 3111 3110 3108 3107 3105 3103 3102 3100 3097 3095 3092 3090 3087 3085 3085 3087 3089 3089 3089 3090 3091 3091 3091 3092 3091 3091 3092 3093 3094 3097 3101 3103 3105 3107 3108 3109 3111 3113 3115 3117 3119 3120 3120 3120 3122 3123 3125 3126 3127 3129 3130 3130 3132 3133 3134 3135 3137 3138 3138 3139 3139 3140 3140 3141 3142 3142 3142 3142 3142 3142 3143 3143 3145 3146 3146 3147 3148 3148 3149 3149 3150 3150
3112 3111 3110 3109 3108 3106 3105 3103 3101 3099 3098 3095 3093 3091 3089 3086 3084 3084 3086 3087 3086 3086 3087 3088 3088 3089 3089 3089 3090 3090 3091 3093 3096 3099 3101 3103 3104 3105 3107 3110 3112 3114 3115 3117 3118 3119 3120 3121 3122 3124 3124 3125 3126 3128 3129 3131 3132 3133 3134 3135 3136 3137 3137 3138 3138 3139 3139 3140 3140 3140 3140 3141 3141 3141 3142 3143 3144 3145 3146 3146 3147 3148 3148 3148 3149
3110 3109 3108 3107 3106 3105 3103 3101 3099 3098 3096 3094 3092 3090 3088 3086 3084 3084 3084 3085 3084 3084 3085 3085 3086 3088 3088 3089 3089 3089 3090 3093 3095 3097 3099 3101 3102 3103 3105 3108 3110 3112 3114 3114 3116 3118 3119 3119 3121 3122 3122 3122 3124 3126 3127 3129 3129 3131 3132 3133 3133 3135 3136 3136 3137 3137 3138 3138 3138 3138 3139 3140 3141 3141 3141 3141 3143 3143 3144 3145 3146 3146 3147 3147 3147
3109 3108 3107 3106 3104 3103 3101 3099 3098 3096 3094 3092 3090 3089 3088 3086 3084 3083 3083 3083 3083 3084 3084 3085 3086 3088 3088 3089 3089 3089 3091 3093 3094 3096 3097 3099 3101 3103 3104 3105 3107 3110 3111 3112 3114 3116 3116 3117 3119 3120 3120 3121 3121 3123 3126 3126 3126 3128 3129 3130 3132 3133 3134 3135 3135 3136 3136 3137 3137 3137 3138 3139 3140 3140 3140 3140 3142 3142 3143 3144 3144 3145 3146 3146 3146
3107 3106 3105 3104 3103 3101 3100 3098 3096 3094 3092 3091 3089 3088 3087 3085 3084 3083 3082 3083 3083 3083 3085 3086 3087 3089 3089 3089 3089 3090 3092 3093 3094 3095 3096 3096 3098 3100 3102 3103 3105 3107 3109 3110 3112 3113 3113 3115 3116 3116 3117 3119 3120 3122 3124 3124 3125 3126 3127 3129 3131 3132 3133 3134 3134 3134 3135 3135 3135 3136 3137 3137 3138 3139 3139 3140 3141 3141 3142 3143 3143 3144 3144 3145 3145
3106 3105 3104 3103 3101 3100 3098 3096 3094 3093 3091 3089 3088 3086 3085 3084 3083 3083 3083 3083 3083 3083 3084 3086 3087 3088 3088 3088 3089 3091 3093 3093 3095 3096 3096 3096 3097 3098 3100 3102 3103 3105 3108 3109 3110 3112 3113 3114 3114 3114 3116 3119 3121 3122 3123 3124 3126 3127 3127 3128 3129 3130 3131 3132 3133 3133 3133 3134 3134 3135 3136 3136 3137 3138 3138 3139 3140 3140 3141 3142 3142 3143 3143 3144 3144
3105 3104 3103 3102 3100 3098 3097 3095 3093 3092 3090 3088 3087 3086 3085 3083 3083 3082 3082 3082 3082 3083 3084 3085 3085 3086 3086 3086 3088 3091 3092 3093 3094 3095 3096 3096 3097 3097 3099 3100 3102 3104 3107 3108 3109 3111 3112 3113 3113 3115 3117 3119 3120 3122 3123 3124 3125 3126 3127 3128 3129 3129 3130 3131 3132 3132 3132 3133 3133 3134 3135 3135 3136 3137 3137 3138 3139 3139 3140 3141 3141 3142 3142 3142 3143
3104 3103 3102 3100 3099 3097 3096 3094 3092 3091 3089 3088 3086 3085 3084 3083 3082 3081 3080 3080 3081 3082 3082 3083 3084 3084 3084 3084 3087 3089 3091 3092 3093 3094 3095 3096 3097 3098 3099 3100 3101 3103 3105 3106 3108 3109 3110 3111 3112 3114 3117 3118 3119 3120 3121 3122 3123 3125 3126 3127 3128 3128 3129 3130 3131 3131 3131 3132 3133 3133 3134 3134 3135 3136 3136 3137 3138 3138 3139 3139 3140 3140 3140 3141 3141
3103 3102 3101 3100 3098 3097 3095 3093 3092 3090 3088 3087 3086 3084 3083 3081 3080 3079 3078 3078 3079 3080 3081 3081 3082 3082 3082 3082 3084 3087 3090 3091 3092 3093 3094 3095 3096 3097 3099 3099 3101 3102 3103 3105 3106 3107 3108 3110 3111 3113 3115 3116 3117 3119 3120 3121 3122 3123 3124 3125 3126 3126 3128 3128 3129 3129 3130 3131 3132 3132 3132 3133 3133 3134 3135 3135 3136 3137 3137 3138 3138 3139 3139 3139 3140
3102 3101 3100 3099 3097 3096 3094 3092 3091 3090 3088 3086 3085 3083 3082 3080 3079 3077 3077 3076 3077 3078 3078 3079 3080 3080 3080 3081 3082 3084 3088 3090 3091 3091 3092 3094 3096 3097 3098 3099 3100 3101 3102 3103 3104 3105 3107 3108 3110 3111 3113 3114 3116 3117 3118 3119 3120 3121 3122 3123 3124 3124 3125 3126 3127 3128 3129 3130 3130 3131 3131 3131 3132 3132 3133 3134 3135 3135 3136 3137 3137 3137 3137 3137 3137
3100 3100 3099 3098 3097 3095 3094 3092 3091 3089 3088 3086 3084 3082 3081 3079 3077 3076 3076 3075 3075 3076 3077 3077 3078 3079 3079 3080 3081 3083 3085 3088 3089 3090 3091 3092 3094 3096 3097 3098 3100 3101 3101 3101 3102 3104 3106 3107 3109 3110 3112 3113 3114 3115 3116 3117 3118 3119 3120 3121 3121 3122 3124 3125 3126 3127 3128 3128 3128 3128 3129 3130 3131 3132 3132 3133 3133 3133 3134 3135 3135 3135 3135 3135 3135
3099 3099 3098 3097 3096 3095 3093 3092 3090 3089 3087 3086 3084 3082 3080 3078 3077 3076 3075 3075 3075 3075 3075 3076 3077 3077 3078 3079 3080 3082 3083 3085 3087 3088 3089 3091 3093 3095 3096 3097 3098 3099 3100 3101 3102 3103 3104 3105 3107 3109 3110 3111 3112 3113 3114 3115 3116 3117 3118 3119 3120 3121 3122 3123 3124 3125 3126 3127 3127 3128 3128 3129 3131 3131 3131 3131 3131 3131 3132 3132 3133 3133 3133 3132 3132
3098 3098 3097 3096 3095 3094 3093 3092 3090 3089 3087 3086 3084 3082 3080 3078 3077 3076 3075 3075 3075 3075 3075 3075 3076 3076 3077 3078 3079 3080 3081 3083 3085 3086 3088 3089 3091 3093 3095 3095 3096 3098 3099 3100 3100 3101 3102 3104 3105 3106 3108 3109 3110 3111 3112 3113 3114 3115 3116 3117 3118 3119 3120 3121 3122 3123 3124 3125 3126 3126 3127 3128 3129 3129 3129 3129 3129 3129 3129 3130 3130 3130 3130 3130 3129
3097 3097 3096 3095 3094 3093 3092 3091 3090 3089 3087 3085 3084 3082 3080 3079 3077 3076 3075 3075 3075 3075 3074 3074 3075 3075 3076 3077 3078 3079 3080 3081 3083 3085 3086 3088 3089 3092 3094 3094 3095 3096 3097 3098 3098 3099 3101 3102 3103 3104 3106 3107 3108 3109 3110 3111 3112 3113 3115 3115 3116 3117 3118 3119 3120 3121 3122 3123 3123 3124 3124 3125 3126 3127 3127 3127 3127 3127 3127 3127 3128 3128 3127 3127 3127
3096 3096 3095 3094 3093 3092 3091 3090 3090 3089 3087 3085 3084 3082 3080 3079 3077 3076 3075 3075 3075 3074 3074 3073 3074 3075 3076 3076 3077 3078 3079 3080 3082 3083 3085 3087 3089 3091 3093 3093 3093 3094 3096 3097 3098 3100 3101 3101 3102 3103 3105 3106 3106 3107 3108 3109 3111 3112 3113 3113 3114 3116 3117 3118 3119 3119 3120 3121 3121 3122 3122 3123 3124 3125 3125 3125 3125 3125 3125 3124 3124 3125 3124 3124 3123
3096 3095 3094 3094 3092 3091 3090 3090 3089 3088 3087 3085 3084 3082 3081 3079 3077 3076 3075 3075 3074 3074 3074 3074 3075 3075 3076 3076 3077 3079 3080 3081 3081 3082 3084 3087 3089 3091 3092 3092 3093 3094 3095 3096 3098 3099 3100 3101 3102 3104 3104 3104 3105 3106 3107 3108 3109 3110 3111 3112 3113 3114 3115 3116 3117 3117 3118 3119 3119 3120 3121 3121 3122 3122 3122 3122 3122 3122 3122 3121 3121 3121 3122 3120 3119
3095 3094 3094 3093 3092 3091 3090 3089 3088 3087 3086 3085 3084 3083 3081 3080 3078 3076 3076 3076 3075 3075 3075 3076 3076 3076 3077 3078 3079 3080 3081 3081 3081 3083 3085 3087 3089 3090 3091 3092 3092 3093 3095 3096 3097 3099 3099 3100 3101 3102 3102 3103 3103 3104 3106 3107 3107 3108 3109 3110 3111 3112 3113 3114 3115 3115 3116 3116 3117 3118 3118 3119 3119 3119 3119 3119 3119 3119 3118 3118 3117 3118 3118 3117 3116
3095 3094 3093 3093 3092 3091 3090 3089 3088 3087 3086 3085 3084 3083 3082 3080 3079 3077 3076 3076 3076 3076 3076 3077 3077 3078 3078 3079 3080 3081 3081 3082 3083 3084 3086 3088 3088 3089 3090 3092 3093 3093 3095 3096 3098 3098 3099 3099 3100 3100 3101 3102 3102 3103 3104 3105 3106 3107 3108 3108 3109 3109 3110 3111 3112 3112 3113 3114 3115 3115 3115 3116 3116 3116 3115 3115 3115 3115 3115 3115 3115 3115 3114 3114 3115
3094 3094 3093 3093 3092 3091 3090 3089 3088 3087 3086 3085 3084 3083 3082 3081 3080 3078 3077 3077 3077 3078 3078 3078 3078 3078 3078 3079 3079 3080 3081 3082 3083 3085 3086 3087 3088 3089 3091 3092 3092 3093 3095 3096 3097 3098 3098 3099 3099 3099 3100 3101 3101 3101 3102 3103 3104 3105 3105 3106 3106 3107 3108 3109 3109 3109 3111 3112 3112 3112 3112 3112 3112 3112 3111 3112 3112 3111 3111 3111 3112 3112 3111 3111 3111
3094 3093 3093 3092 3092 3091 3090 3089 3088 3087 3086 3085 3084 3083 3082 3081 3080 3080 3079 3079 3079 3079 3078 3078 3078 3079 3079 3079 3079 3080 3080 3082 3083 3084 3085 3086 3088 3089 3091 3092 3092 3093 3093 3094 3095 3096 3096 3097 3097 3098 3099 3100 3100 3100 3100 3101 3101 3102 3103 3104 3104 3105 3106 3106 3106 3106 3107 3108 3108 3108 3108 3108 3108 3107 3108 3108 3108 3108 3108 3108 3108 3109 3109 3108 3108
3093 3093 3092 3092 3091 3091 3090 3089 3088 3087 3086 3085 3084 3083 3083 3082 3081 3081 3080 3080 3080 3079 3079 3078 3078 3078 3079 3080 3080 3081 3081 3082 3082 3083 3084 3085 3087 3088 3089 3091 3092 3093 3092 3093 3093 3094 3094 3095 3096 3096 3097 3098 3098 3099 3099 3099 3100 3100 3100 3101 3101 3102 3102 3103 3103 3103 3104 3104 3104 3104 3104 3104 3104 3104 3105 3106 3105 3105 3105 3105 3106 3106 3106 3105 3105
3093 3092 3092 3091 3091 3090 3089 3089 3088 3087 3086 3085 3085 3084 3084 3083 3082 3082 3081 3081 3080 3080 3080 3079 3079 3079 3079 3080 3081 3082 3082 3083 3083 3083 3084 3085 3086 3087 3089 3090 3091 3092 3092 3093 3093 3093 3092 3093 3094 3095 3096 3096 3096 3096 3096 3096 3096 3096 3097 3097 3097 3097 3098 3099 3099 3100 3100 3100 3100 3100 3100 3100 3101 3101 3102 3102 3102 3102 3103 3102 3103 3103 3103 3103 3102
3092 3092 3091 3091 3090 3090 3089 3088 3088 3087 3086 3085 3085 3085 3084 3084 3083 3083 3082 3082 3081 3081 3081 3081 3080 3080 3080 3081 3081 3082 3083 3083 3084 3084 3085 3085 3086 3087 3089 3090 3091 3091 3092 3092 3092 3092 3092 3092 3093 3093 3094 3094 3094 3094 3094 3093 3093 3093 3093 3093 3093 3093 3094 3095 3095 3095 3095 3095 3095 3096 3096 3096 3097 3098 3098 3099 3099 3099 3100 3100 3100 3100 3100 3100 3100
3092 3091 3091 3090 3090 3089 3089 3088 3088 3087 3086 3085 3085 3084 3084 3084 3083 3083 3083 3083 3083 3082 3082 3082 3082 3081 3081 3082 3082 3082 3083 3083 3084 3085 3085 3086 3087 3087 3088 3089 3090 3091 3091 3092 3092 3091 3091 3090 3090 3091 3091 3092 3092 3092 3091 3091 3090 3090 3090 3090 3090 3091 3091 3091 3091 3091 3091 3091 3091 3092 3092 3093 3093 3094 3095 3095 3096 3097 3097 3097 3098 3098 3098 3098 3097
3091 3091 3091 3090 3089 3089 3089 3088 3088 3087 3087 3086 3085 3085 3085 3085 3085 3084 3084 3084 3083 3083 3083 3083 3083 3082 3082 3082 3083 3083 3083 3083 3084 3085 3085 3086 3086 3087 3088 3088 3089 3089 3090 3090 3090 3089 3089 3089 3088 3088 3088 3088 3089 3089 3088 3088 3087 3086 3086 3087 3087 3087 3087 3087 3087 3087 3087 3087 3088 3089 3090 3090 3090 3091 3092 3092 3094 3094 3095 3095 3095 3095 3095 3095 3094
3091 3091 3090 3090 3089 3089 3089 3088 3088 3087 3087 3086 3086 3086 3086 3086 3086 3085 3085 3084 3084 3084 3084 3084 3084 3084 3083 3083 3083 3083 3083 3083 3084 3084 3084 3085 3085 3086 3086 3086 3086 3087 3087 3087 3087 3086 3086 3085 3085 3084 3084 3084 3083 3083 3083 3083 3082 3082 3082 3082 3083 3083 3083 3084 3084 3084 3084 3084 3085 3086 3087 3087 3088 3088 3089 3090 3091 3091 3091 3092 3092 3092 3092 3092 3091
3091 3090 3090 3089 3089 3088 3088 3088 3087 3087 3086 3086 3086 3086 3086 3086 3086 3086 3085 3085 3085 3084 3084 3084 3085 3085 3084 3084 3083 3083 3083 3083 3083 3083 3083 3083 3084 3084 3084 3084 3084 3084 3083 3083 3084 3084 3083 3082 3082 3081 3081 3080 3080 3079 3079 3079 3079 3079 3079 3079 3079 3080 3080 3080 3081 3081 3081 3082 3083 3083 3084 3085 3085 3086 3087 3088 3088 3088 3088 3088 3088 3088 3088 3088 3088
3091 3091 3090 3090 3089 3089 3088 3088 3087 3087 3087 3086 3086 3086 3086 3086 3086 3086 3085 3085 3085 3084 3084 3084 3084 3084 3084 3084 3083 3083 3082 3082 3082 3082 3082 3082 3082 3082 3082 3082 3081 3081 3081 3081 3081 3081 3080 3080 3079 3079 3078 3078 3077 3077 3077 3076 3076 3076 3076 3076 3076 3076 3076 3077 3077 3078 3079 3079 3080 3081 3082 3083 3083 3084 3085 3085 3085 3085 3086 3085 3085 3085 3085 3085 3085
3091 3091 3091 3090 3090 3089 3089 3088 3088 3087 3087 3087 3086 3086 3086 3086 3086 3086 3085 3085 3084 3084 3084 3083 3083 3083 3083 3082 3082 3082 3081 3081 3081 3081 3080 3080 3080 3079 3079 3079 3079 3078 3078 3078 3077 3077 3077 3076 3076 3075 3075 3074 3074 3074 3073 3073 3073 3072 3072 3072 3072 3072 3073 3073 3074 3075 3076 3077 3078 3079 3079 3080 3081 3081 3082 3082 3083 3083 3083 3083 3083 3083 3082 3082 3081
3092 3092 3091 3091 3090 3090 3089 3089 3088 3088 3088 3087 3087 3086 3086 3087 3086 3086 3085 3085 3085 3084 3084 3083 3083 3083 3082 3082 3081 3081 3080 3080 3080 3079 3079 3078 3078 3077 3077 3076 3076 3075 3075 3075 3074 3074 3074 3073 3073 3072 3071 3071 3070 3070 3070 3070 3069 3069 3069 3070 3070 3070 3070 3071 3072 3073 3074 3075 3076 3076 3077 3078 3078 3079 3079 3080 3080 3080 3080 3080 3080 3080 3079 3079 3079
3092 3092 3092 3091 3091 3091 3090 3090 3089 3089 3088 3088 3087 3087 3087 3087 3087 3086 3086 3085 3085 3085 3084 3084 3083 3083 3082 3082 3081 3081 3080 3080 3079 3078 3078 3077 3077 3076 3075 3074 3074 3073 3073 3072 3072 3071 3071 3070 3070 3070 3069 3068 3068 3067 3067 3067 3067 3068 3068 3068 3069 3069 3069 3069 3070 3071 3071 3072 3073 3074 3075 3075 3076 3076 3077 3077 3077 3078 3078 3078 3078 3077 3077 3077 3077
3093 3093 3092 3092 3092 3091 3091 3091 3090 3090 3089 3089 3088 3088 3088 3087 3087 3087 3086 3086 3086 3085 3085 3084 3084 3083 3083 3082 3082 3081 3080 3080 3079 3079 3078 3077 3077 3076 3075 3074 3073 3072 3072 3071 3070 3070 3069 3068 3068 3067 3067 3066 3066 3066 3066 3066 3066 3066 3067 3067 3068 3068 3068 3068 3068 3069 3069 3070 3071 3072 3072 3073 3073 3074 3074 3075 3075 3075 3075 3075 3075 3075 3075 3075 3075
3093 3093 3093 3093 3092 3092 3092 3092 3091 3091 3090 3090 3090 3089 3089 3088 3088 3087 3087 3087 3086 3086 3085 3085 3084 3084 3083 3083 3082 3081 3081 3080 3079 3079 3078 3077 3077 3076 3075 3074 3074 3073 3072 3071 3070 3069 3068 3067 3067 3066 3066 3065 3065 3065 3064 3065 3065 3065 3066 3066 3066 3067 3067 3067 3067 3068 3068 3068 3069 3069 3070 3071 3071 3072 3072 3072 3073 3073 3073 3073 3073 3073 3073 3073 3073
3094 3094 3093 3093 3093 3093 3093 3092 3092 3092 3091 3091 3090 3090 3089 3089 3088 3088 3087 3087 3086 3086 3085 3085 3084 3084 3083 3083 3082 3081 3081 3080 3079 3079 3078 3077 3076 3076 3075 3074 3074 3073 3072 3071 3070 3069 3068 3067 3067 3066 3065 3065 3064 3064 3064 3064 3064 3064 3064 3064 3064 3065 3065 3065 3065 3066 3066 3066 3066 3067 3068 3069 3069 3070 3070 3070 3070 3070 3070 3070 3070 3070 3071 3071 3071
3094 3094 3094 3094 3094 3094 3093 3093 3093 3092 3092 3092 3091 3091 3090 3089 3089 3088 3088 3087 3086 3086 3085 3084 3084 3083 3083 3082 3082 3081 3080 3080 3079 3078 3078 3077 3076 3075 3074 3073 3073 3072 3071 3071 3070 3069 3068 3067 3066 3066 3065 3064 3064 3064 3063 3063 3063 3063 3063 3063 3063 3063 3063 3063 3063 3063 3064 3064 3065 3065 3066 3066 3067 3068 3068 3068 3068 3068 3068 3068 3068 3068 3069 3069 3069
3095 3095 3095 3095 3094 3094 3094 3094 3093 3093 3093 3092 3092 3091 3091 3090 3090 3089 3088 3088 3087 3086 3085 3085 3084 3083 3083 3082 3081 3080 3080 3079 3078 3077 3077 3076 3075 3074 3073 3073 3072 3071 3070 3070 3069 3068 3067 3067 3066 3065 3064 3064 3063 3063 3062 3062 3061 3061 3061 3061 3061 3061 3061 3061 3061 3061 3061 3062 3063 3063 3064 3064 3065 3065 3065 3066 3066 3066 3066 3066 3066 3066 3067 3067 3067
3096 3096 3096 3095 3095 3095 3094 3094 3094 3093 3093 3093 3092 3092 3091 3091 3090 3090 3089 3088 3087 3087 3086 3085 3085 3084 3083 3082 3081 3080 3079 3079 3078 3077 3076 3075 3074 3074 3073 3072 3071 3070 3069 3068 3068 3067 3066 3065 3065 3064 3063 3062 3062 3061 3061 3060 3059 3059 3059 3059 3059 3059 3059 3058 3059 3059 3059 3060 3060 3061 3062 3062 3063 3063 3063 3063 3063 3063 3064 3064 3065 3065 3065 3065 3066
3096 3096 3096 3096 3096 3095 3095 3095 3095 3094 3094 3094 3093 3093 3092 3091 3091 3090 3089 3089 3088 3087 3086 3086 3085 3084 3083 3083 3082 3081 3080 3078 3078 3077 3076 3075 3074 3073 3072 3071 3070 3069 3068 3068 3067 3066 3065 3064 3063 3062 3061 3061 3060 3059 3059 3058 3058 3057 3057 3057 3056 3056 3056 3056 3057 3057 3057 3058 3058 3059 3059 3060 3060 3060 3061 3061 3061 3062 3062 3063 3063 3064 3064 3064 3064
3097 3097 3097 3097 3096 3096 3096 3096 3095 3095 3095 3094 3094 3093 3093 3092 3091 3091 3090 3089 3088 3088 3087 3086 3085 3084 3084 3083 3082 3081 3080 3079 3078 3076 3075 3074 3073 3073 3072 3071 3070 3069 3068 3067 3066 3065 3063 3062 3061 3060 3060 3059 3058 3057 3057 3056 3056 3055 3055 3055 3054 3054 3054 3054 3055 3055 3055 3056 3057 3057 3057 3058 3058 3058 3059 3060 3060 3061 3061 3062 3062 3062 3062 3063 3063
3098 3098 3097 3097 3097 3097 3097 3097 3096 3096 3095 3095 3094 3094 3093 3093 3092 3091 3091 3090 3089 3088 3088 3087 3085 3084 3084 3083 3082 3081 3080 3079 3078 3076 3075 3074 3073 3072 3071 3070 3069 3068 3067 3066 3065 3063 3062 3061 3060 3059 3058 3057 3057 3056 3055 3054 3054 3053 3053 3053 3052 3052 3052 3053 3053 3053 3054 3054 3055 3055 3056 3056 3057 3057 3058 3058 3059 3059 3060 3061 3061 3061 3061 3061 3062
3098 3098 3098 3098 3098 3098 3097 3097 3097 3096 3096 3095 3095 3094 3094 3093 3092 3092 3091 3090 3089 3089 3088 3087 3086 3085 3084 3083 3082 3081 3080 3078 3077 3076 3075 3074 3073 3072 3070 3069 3068 3067 3066 3065 3064 3063 3061 3060 3059 3058 3057 3056 3055 3054 3054 3053 3052 3052 3051 3051 3051 3051 3051 3051 3051 3052 3052 3052 3053 3054 3054 3055 3055 3056 3056 3057 3058 3059 3060 3060 3060 3060 3060 3060 3061
3099 3099 3099 3098 3098 3098 3098 3097 3097 3097 3096 3096 3095 3094 3094 3093 3092 3092 3091 3090 3089 3089 3088 3087 3086 3085 3083 3082 3081 3080 3079 3078 3077 3076 3075 3074 3072 3071 3070 3069 3067 3066 3065 3064 3063 3062 3060 3059 3058 3057 3056 3055 3054 3053 3053 3052 3051 3051 3050 3050 3050 3049 3049 3049 3050 3050 3051 3051 3052 3052 3053 3053 3054 3054 3055 3056 3057 3058 3059 3059 3059 3059 3059 3059 3060
3099 3099 3099 3099 3098 3098 3098 3097 3097 3097 3096 3096 3095 3094 3094 3093 3092 3091 3091 3090 3089 3088 3087 3086 3085 3084 3083 3082 3081 3080 3079 3078 3077 3075 3074 3073 3072 3071 3069 3068 3067 3066 3064 3063 3062 3061 3059 3058 3057 3056 3055 3054 3053 3052 3052 3051 3050 3050 3049 3049 3049 3048 3048 3048 3048 3049 3049 3050 3051 3051 3052 3052 3053 3053 3054 3055 3056 3057 3058 3058 3058 3058 3058 3058 3059
3099 3099 3099 3099 3098 3098 3098 3097 3097 3096 3095 3095 3094 3093 3093 3092 3092 3091 3090 3089 3088 3087 3086 3085 3085 3084 3083 3082 3081 3080 3079 3077 3076 3075 3074 3073 3072 3070 3069 3068 3066 3065 3063 3062 3061 3060 3059 3057 3056 3055 3054 3053 3052 3052 3051 3050 3050 3049 3049 3048 3048 3048 3048 3048 3048 3048 3048 3049 3050 3050 3051 3052 3052 3053 3054 3055 3056 3056 3057 3057 3057 3057 3057 3057 3057
3099 3099 3099 3098 3098 3097 3097 3096 3096 3095 3095 3094 3093 3093 3092 3092 3091 3090 3090 3089 3088 3087 3086 3085 3084 3083 3082 3081 3080 3079 3078 3077 3076 3075 3074 3072 3071 3070 3068 3067 3066 3064 3063 3062 3060 3059 3058 3057 3056 3055 3054 3053 3052 3051 3050 3050 3049 3049 3048 3048 3048 3047 3047 3047 3047 3047 3047 3048 3049 3049 3050 3051 3052 3053 3054 3054 3055 3055 3055 3056 3056 3056 3056 3056 3056
3099 3099 3098 3098 3097 3097 3096 3096 3095 3095 3095 3094 3093 3092 3092 3091 3090 3090 3089 3088 3088 3087 3086 3085 3084 3083 3082 3081 3080 3079 3078 3077 3076 3074 3073 3072 3071 3070 3068 3067 3065 3064 3062 3061 3060 3059 3057 3056 3055 3054 3053 3052 3051 3051 3050 3049 3049 3048 3048 3047 3047 3047 3047 3047 3047 3047 3047 3047 3048 3048 3049 3050 3051 3052 3053 3054 3054 3054 3054 3054 3054 3055 3055 3055 3055
3099 3099 3098 3098 3097 3097 3096 3096 3095 3095 3095 3094 3093 3092 3091 3091 3091 3090 3089 3088 3088 3087 3086 3085 3084 3083 3081 3080 3079 3078 3077 3076 3075 3074 3073 3072 3071 3069 3068 3066 3065 3063 3062 3060 3059 3058 3057 3056 3055 3054 3053 3052 3051 3050 3049 3049 3048 3048 3047 3047 3047 3046 3046 3046 3046 3046 3047 3047 3047 3048 3049 3050 3051 3052 3052 3052 3053 3053 3053 3053 3053 3054 3054 3054 3054
3099 3099 3098 3098 3097 3097 3096 3096 3095 3095 3094 3093 3092 3091 3090 3090 3090 3089 3089 3088 3088 3087 3086 3084 3083 3082 3081 3080 3079 3078 3077 3076 3075 3073 3072 3071 3070 3069 3067 3066 3065 3063 3062 3060 3058 3057 3056 3055 3054 3053 3052 3051 3050 3049 3049 3048 3048 3047 3047 3046 3046 3046 3046 3045 3046 3046 3046 3047 3047 3048 3049 3049 3050 3051 3051 3051 3051 3051 3052 3052 3052 3052 3053 3053 3053
3099 3098 3098 3097 3097 3096 3095 3095 3095 3095 3094 3092 3092 3091 3089 3089 3089 3089 3088 3087 3087 3086 3085 3084 3083 3082 3081 3080 3078 3077 3076 3075 3074 3073 3072 3070 3069 3068 3067 3065 3064 3063 3061 3059 3058 3057 3055 3054 3053 3052 3051 3050 3049 3049 3048 3048 3047 3046 3046 3045 3045 3045 3045 3045 3045 3045 3046 3046 3047 3047 3048 3048 3049 3049 3049 3050 3050 3050 3050 3051 3051 3051 3052 3052 3052